{"data":{"norad_id":20776,"intl_designator":"1990-079A","name":"SKYNET 4C","alt_names":[],"object_type":"PAYLOAD","status":"ACTIVE","operator":null,"country":"UK","launch_date":"1990-08-30","launch_site_code":"FRGUI","launch_vehicle":null,"mission":null,"orbit_class":"UNKNOWN","rcs_meters":11.1055,"size_class":null,"mass_kg":null,"dimensions":null,"purposes":["comms"],"wikipedia_slug":null,"has_3d_model":false,"image_url":null,"decayed_at":null,"tle_current":{"epoch":"2026-08-15T01:37:06.663072Z","epoch_age_seconds":3159032,"freshness":"OLD","line1":"1 20776U 90079A   26227.06743823 -.00000203  00000+0  00000+0 0  9993","line2":"2 20776  13.3194 349.4402 0002856 148.9621 212.0590  0.98579573   623","mean_motion":0.98579573,"eccentricity":0.0002856,"inclination_deg":13.3194,"raan_deg":349.4402,"arg_perigee_deg":148.9621,"mean_anomaly_deg":212.059,"bstar":0,"rev_number":62,"period_min":1460.7488713712,"perigee_km":36255.57698376,"apogee_km":36279.936318213,"semimajor_km":42645.893650986,"source":"CELESTRAK","updated_at":"2026-08-15T09:00:39.073005Z"}}}